STARLINK-37302, 68669

Orbit data source: Space-Track

STARLINK-37302, 68669 is a payload satellite owned by SpaceX/Seattle (US) in SSO that was launched on Sat, 11 Apr 2026 UTC via an FALCON 9 launch vehicle from the Air Force Western Test Range (AFWTR). Payload-class satellites include a variety of spacecraft equipped with specific instruments for various scientific and technological missions. These include communications satellites like Starlink; space stations such as the ISS; scientific satellites like the Hubble; Earth observation satellites from companies like Planet Labs, Umbra, and HawkEye 360; GPS; miniature CubeSats for education and research; and military/defense satellites.

Loading next visibility...
Identifier
68669, 2026-077H
Orbit
SSO
Country
Flag of USUS
Related business
Manufacturer
SpaceX/Seattle
Mission
Operational spacecraft
Bus & Motor
STARLINK V2MO, Unknown motor
Mass
575 kg wet, ~530 kg dry
Launch date (UTC)
2026-04-11 (2 months ago)
Launch vehicle
FALCON 9
Launch site
Air Force Western Test Range (AFWTR)
Object type
Payload
Rocket body
Debris
Shape & HBR
Unknown shape, 14.5 m
Radar Cross Section
Large (>1 m²)

Expand to show TLE details & history
Last TLE update: 11 hours ago

TLE from 11 hours ago
0 STARLINK-37302
1 68669U 26077H   26171.37508779  .00018611  00000-0  57743-3 0  9996
2 68669  97.2857  42.5582 0002096  91.2337 268.9146 15.33441190 10898
Epoch: 2026-06-20T09:00Z
TLE epoch observation values (Epoch: 2026-06-20T09:00:07.585Z)
Latitude
0.00001°
Longitude
-1.06402°
Altitude
468.694 km
Speed
7.632 km/s
True Right ascension
02h 50m 13s
True Declination
0° 00' 00"
Sunlit
Object was in daylight at epoch
Visualization orbit readout
Latitude
Unknown
Longitude
Unknown
Altitude
Unknown
Speed
Unknown
Apparent Right ascension
Unknown
Apparent Declination
Unknown
Sunlit
N/A
Visualization observer readout
Local Sidereal Time
07:20:42
Azimuth
Unknown
Elevation
Unknown
Doppler factor
Unknown
Orbital elements
Apogee altitude
463.931 km
Perigee altitude
461.064 km
Semi-major axis
6,840.634 km
Eccentricity
0.00021
Inclination
97.2857°
RAAN
42.5582°
Arg. of periapsis
91.2337°
True anomaly
268.89059°
Mean anomaly
268.9146°
Eccentric anomaly
268.90259°
Mean motion
3.83618 °/min
Orbital period
93.84 mins
BSTAR
0.00057743
Loading maneuver chart data...
Computing Atmospheric mass density...
Loading historical data...
Loading historical data...
Loading historical data...
Loading historical data...
Loading historical data...
Loading historical data...
Loading historical data...

Documentation

Showing up to 5 results
|